Location: Unspecified
(0.0000°N, 0.0000°E)
Time: 03:29:59
(UTC+00:00)

OTV 5 (USA 277) - Pass Details

Date: 14 January 2018
Orbit: 404 x 417 km, 43.0° (Epoch: 07 September)

Event Time Altitude Azimuth Distance (km) Brightness Sun altitude
Rises 19:15:05 0° 224° (SW) 2,349 ? -15.3°
Reaches altitude 10° 19:17:12 10° 224° (SW) 1,485 ? -15.8°
Maximum altitude 19:20:33 87° 135° (SE) 417 ? -16.6°
Enters shadow 19:21:31 44° 47° (NE) 584 ? -16.8°
